Weather Service Report


333 
ASUS45 KREV 240910
RWRNV 
NEVADA REGIONAL WEATHER ROUNDUP
NATIONAL WEATHER SERVICE RENO NV
200 AM PDT MON JUL 24 2017

NOTE: "FAIR" INDICATES FEW OR NO CLOUDS BELOW 12,000 FEET WITH NO
SIGNIFICANT WEATHER AND/OR OBSTRUCTIONS TO VISIBILITY.

NVZ001-003-004-241000-
WESTERN NEVADA
  
CITY           SKY/WX    TMP DP  RH WIND       PRES   REMARKS
RENO           MOCLDY    76  44  32 W7        30.01S                  
CARSON CITY    CLOUDY    72  46  40 CALM      30.03S                  
MINDEN         FAIR      64  48  55 MISG      30.04S                  
FALLON         MOCLDY    71  45  39 S6        29.95S HAZE             
LOVELOCK       PTCLDY    69  51  52 NE5       29.95S                  
$$

NVZ002-CAZ072-073-241000-
NORTHERN AND CENTRAL SIERRA
  
CITY           SKY/WX    TMP DP  RH WIND       PRES   REMARKS
S. LAKE TAHOE  MOCLDY    59  46  62 SE3       30.16F                  
TRUCKEE        PTCLDY    52  45  76 CALM      30.15F                  
SQUAW VLY 8000   N/A     63  41  45 S3          N/A                   
SUSANVILLE     CLEAR     70  34  26 W7        30.01S                  
MAMMOTH LAKES  CLOUDY    63  46  53 N3        30.23S                  
BRIDGEPORT     FAIR      62  41  46 CALM      30.17F                  
$$

NVZ030-031-036-241000-
NORTHERN NEVADA
  
CITY           SKY/WX    TMP DP  RH WIND       PRES   REMARKS
ELKO           CLOUDY    72  43  35 CALM      30.06F                  
WINNEMUCCA     CLEAR     69  43  38 E5        29.98S                  
WENDOVER       MOCLDY    75  45  34 CALM      29.99F                  
$$

NVZ035-037-241000-
CENTRAL NEVADA
  
CITY           SKY/WX    TMP DP  RH WIND       PRES   REMARKS
ELY              N/A    N/A N/A N/A MISG      30.17F                  
EUREKA           N/A     61  44  53 SW6       30.15S                  
$$

NVZ013-014-241000-
SOUTH CENTRAL NEVADA
  
CITY           SKY/WX    TMP DP  RH WIND       PRES   REMARKS
TONOPAH        PTCLDY    75  49  39 VRB5      30.11F                  
$$

NVZ017-020-022-241000-
SOUTHERN NEVADA
  
CITY           SKY/WX    TMP DP  RH WIND       PRES   REMARKS
LAS VEGAS      CLOUDY    91  60  35 NE3       29.87R                  
N. LAS VEGAS   PTCLDY    91  56  30 E16       29.87R                  
NELLIS AFB     RAIN      90  61  37 NE13      29.86R                  
HENDERSON      MOCLDY    89  59  36 SE6       29.91R                  
MERCURY        PTCLDY    89  56  32 E24G37    29.90R                  
$$
  

Return to Home page


Western Regional Climate Center, wrcc@dri.edu